Time,TemperatureF,DewpointF,PressureIn,WindDirection,WindDirectionDegrees,WindSpeedMPH,WindSpeedGustMPH,Humidity,HourlyPrecipIn,Conditions,Clouds,dailyrainin,SoftwareType,DateUTC
2013-11-27 00:22:00,13.0,6.0,-100.00,NNW,345,9.0,11.0,73,0.00,,,-99.99,,2013-11-27 06:22:00,
2013-11-27 00:42:00,13.0,6.0,-100.00,NNW,345,10.0,13.0,73,0.00,,,-99.99,,2013-11-27 06:42:00,
2013-11-27 01:22:00,13.0,7.0,-100.00,NNW,345,12.0,16.0,74,0.00,,,-99.99,,2013-11-27 07:22:00,
2013-11-27 01:42:00,13.0,7.0,-100.00,North,350,11.0,16.0,74,0.00,,,-99.99,,2013-11-27 07:42:00,
2013-11-27 02:21:00,12.0,6.0,-100.00,NNW,345,9.0,11.0,77,0.00,,,-99.99,,2013-11-27 08:21:00,
2013-11-27 02:42:00,12.0,6.0,-100.00,North,355,9.0,11.0,77,0.00,,,-99.99,,2013-11-27 08:42:00,
2013-11-27 03:21:00,10.0,5.0,-100.00,NNW,345,5.0,8.0,80,0.00,,,-99.99,,2013-11-27 09:21:00,
2013-11-27 03:43:00,10.0,6.0,-100.00,NNW,335,5.0,6.0,81,0.00,,,-99.99,,2013-11-27 09:43:00,
2013-11-27 04:23:00,10.0,6.0,-100.00,North,355,5.0,6.0,82,0.00,,,-99.99,,2013-11-27 10:23:00,
2013-11-27 04:42:00,9.0,5.0,-100.00,NNW,330,3.0,5.0,82,0.00,,,-99.99,,2013-11-27 10:42:00,
2013-11-27 05:22:00,9.0,5.0,-100.00,NW,315,6.0,7.0,83,0.00,,,-99.99,,2013-11-27 11:22:00,
2013-11-27 05:42:00,9.0,5.0,-100.00,NW,315,4.0,6.0,84,0.00,,,-99.99,,2013-11-27 11:42:00,
2013-11-27 06:21:00,9.0,5.0,-100.00,NNW,330,4.0,6.0,84,0.00,,,-99.99,,2013-11-27 12:21:00,
2013-11-27 06:42:00,8.0,5.0,-100.00,NNW,330,3.0,4.0,85,0.00,,,-99.99,,2013-11-27 12:42:00,
2013-11-27 07:11:00,8.0,5.0,-100.00,NW,325,4.0,6.0,85,0.00,,,-99.99,,2013-11-27 13:11:00,
2013-11-27 07:22:00,8.0,5.0,-100.00,NW,325,3.0,5.0,85,0.00,,,-99.99,,2013-11-27 13:22:00,
2013-11-27 07:42:00,8.0,5.0,-100.00,NW,320,3.0,5.0,86,0.00,,,-99.99,,2013-11-27 13:42:00,
2013-11-27 08:21:00,10.0,7.0,-100.00,NNW,330,3.0,4.0,85,0.00,,,-99.99,,2013-11-27 14:21:00,
2013-11-27 08:42:00,12.0,8.0,-100.00,NNW,330,2.0,4.0,84,0.00,,,-99.99,,2013-11-27 14:42:00,
2013-11-27 09:22:00,14.0,9.0,-100.00,NNW,335,3.0,4.0,81,0.00,,,-99.99,,2013-11-27 15:22:00,
2013-11-27 09:44:00,17.0,11.0,-100.00,North,0,1.0,3.0,78,0.00,,,-99.99,,2013-11-27 15:44:00,
2013-11-27 10:23:00,18.0,10.0,-100.00,SSE,160,6.0,7.0,71,0.00,,,-99.99,,2013-11-27 16:23:00,
2013-11-27 10:43:00,19.0,10.0,-100.00,South,175,4.0,7.0,67,0.00,,,-99.99,,2013-11-27 16:43:00,
2013-11-27 11:22:00,22.0,11.0,-100.00,South,185,6.0,11.0,62,0.00,,,-99.99,,2013-11-27 17:22:00,
2013-11-27 11:42:00,22.0,11.0,-100.00,SW,235,6.0,11.0,60,0.00,,,-99.99,,2013-11-27 17:42:00,
2013-11-27 12:22:00,24.0,11.0,-100.00,SW,235,5.0,10.0,56,0.00,,,-99.99,,2013-11-27 18:22:00,
2013-11-27 12:43:00,25.0,11.0,-100.00,SSW,210,6.0,11.0,55,0.00,,,-99.99,,2013-11-27 18:43:00,
2013-11-27 13:21:00,27.0,11.0,-100.00,SW,230,7.0,12.0,52,0.00,,,-99.99,,2013-11-27 19:21:00,
2013-11-27 13:42:00,27.0,11.0,-100.00,SSW,200,10.0,13.0,51,0.00,,,-99.99,,2013-11-27 19:42:00,
2013-11-27 14:22:00,27.0,11.0,-100.00,SSW,200,13.0,16.0,48,0.00,,,-99.99,,2013-11-27 20:22:00,
2013-11-27 14:42:00,28.0,11.0,-100.00,SSW,200,13.0,16.0,48,0.00,,,-99.99,,2013-11-27 20:42:00,
2013-11-27 15:22:00,29.0,11.0,-100.00,SSW,200,15.0,17.0,47,0.00,,,-99.99,,2013-11-27 21:22:00,
2013-11-27 15:43:00,28.0,10.0,-100.00,SSW,195,15.0,20.0,46,0.00,,,-99.99,,2013-11-27 21:43:00,
2013-11-27 16:23:00,27.0,10.0,-100.00,SSW,195,16.0,20.0,47,0.00,,,-99.99,,2013-11-27 22:23:00,
2013-11-27 16:42:00,27.0,10.0,-100.00,SSW,195,18.0,21.0,48,0.00,,,-99.99,,2013-11-27 22:42:00,
2013-11-27 17:22:00,25.0,10.0,-100.00,South,190,17.0,21.0,51,0.00,,,-99.99,,2013-11-27 23:22:00,
2013-11-27 17:42:00,25.0,10.0,-100.00,South,185,17.0,23.0,52,0.00,,,-99.99,,2013-11-27 23:42:00,
2013-11-27 18:21:00,25.0,11.0,-100.00,South,180,18.0,23.0,54,0.00,,,-99.99,,2013-11-28 00:21:00,
2013-11-27 18:42:00,25.0,11.0,-100.00,South,185,20.0,26.0,56,0.00,,,-99.99,,2013-11-28 00:42:00,
2013-11-27 19:22:00,25.0,12.0,-100.00,SSW,195,19.0,26.0,57,0.00,,,-99.99,,2013-11-28 01:22:00,
2013-11-27 19:42:00,25.0,13.0,-100.00,SSW,200,16.0,21.0,57,0.00,,,-99.99,,2013-11-28 01:42:00,
2013-11-27 20:21:00,26.0,13.0,-100.00,SSW,205,15.0,21.0,57,0.00,,,-99.99,,2013-11-28 02:21:00,
2013-11-27 21:21:00,27.0,13.0,-100.00,SSW,205,17.0,23.0,55,0.00,,,-99.99,,2013-11-28 03:21:00,
2013-11-27 21:44:00,27.0,13.0,-100.00,SSW,205,17.0,24.0,55,0.00,,,-99.99,,2013-11-28 03:44:00,
2013-11-27 22:23:00,27.0,13.0,-100.00,SSW,195,16.0,24.0,55,0.00,,,-99.99,,2013-11-28 04:23:00,
2013-11-27 22:42:00,27.0,13.0,-100.00,SSW,200,17.0,22.0,55,0.00,,,-99.99,,2013-11-28 04:42:00,
2013-11-27 23:22:00,27.0,14.0,-100.00,SSW,205,14.0,22.0,56,0.00,,,-99.99,,2013-11-28 05:22:00,
2013-11-27 23:43:00,27.0,13.0,-100.00,SSW,210,17.0,22.0,56,0.00,,,-99.99,,2013-11-28 05:43:00,